GE 4

operational
NORAD ID: 25954 Int'l Des: 1999-060 Owner: AMCG Country: US
HEOCIRCULAR

About GE 4

Description loading...

Live Position

Loading 3D Globe...

Upcoming Passes

Altitude History

Altitude vs Time

uPlot chart will show altitude changes over time

Two-Line Element Set

1 25954U 99060A 25278.52174926 .00000081 00000-0 00000+0 0 9997
2 25954 4.5929 76.8664 0006668 146.0608 204.6813 0.99131942 40886
Epoch: Oct 5, 2025 • Age: 15 hours

Current Status

Altitude 36100.5 km
Velocity 3.06 km/s
Sub-Earth Point -2.82°S, 137.32°W
Launch Date Nov 13, 1999
Age 25.8 years
Type other

Technical Details

Classification Payload
Mass 3903.00 kg
Dry Mass 1755.00 kg
Total Mass 3903.00 kg
Length 6.20 m
Diameter 3.00 m
Span 26.80 m
Shape Box + 2 Pan
Manufacturer LMCSS
Bus Type A2100AX
Phase Status Unknown Transfer Status
Owner/State AMCG/US

Large Constellations

Loading constellations...